Regional Weather Roundup
Issued by NWS

Home | Current Version | Previous Version | Graphics & Text | Print | Product List | Glossary On
Versions: 1 2 3 4 5 6 7 8 9 10 11 12 13 14 15 16 17 18 19 20 21 22 23 24 25 26 27 28 29 30 31 32 33 34 35 36 37 38 39 40 41 42 43 44 45 46 47 48 49 50
000
ASUS45 KCYS 070010
RWRWY

WYOMING REGIONAL WEATHER ROUNDUP
NATIONAL WEATHER SERVICE CHEYENNE WY
600 PM MDT MON JUL 06 2015

NOTE:  "FAIR" INDICATES FEW OR NO CLOUDS BELOW 12,000 FEET
WITH NO SIGNIFICANT WEATHER AND/OR OBSTRUCTIONS TO VISIBILITY.

WYZ001-070100-
YELLOWSTONE NATIONAL PARK

CITY           SKY/WX    TMP DP  RH WIND       PRES   REMARKS
LK YELLOWSTONE   N/A     62  46  55 W8        30.32S
6HR MIN TEMP:  59; 6HR MAX TEMP:  68;

W YELLOWSTONE  NOT AVBL

$$
WYZ002>013-054>058-071-098>099-070100-
NORTHERN WYOMING

CITY           SKY/WX    TMP DP  RH WIND       PRES   REMARKS
JACKSON        FAIR      66  54  63 W5        30.21S
CODY           FAIR      70  50  49 S5        30.19F
GREYBULL       FAIR      76  47  35 VRB3      30.13F
6HR MIN TEMP:  66; 6HR MAX TEMP:  77;

WORLAND        FAIR      74  52  46 NW6       30.14F
6HR MIN TEMP:  63; 6HR MAX TEMP:  75;

SHERIDAN       PTSUNNY   67  54  63 S5        30.20F
6HR MIN TEMP:  57; 6HR MAX TEMP:  68;

BUFFALO        PTSUNNY   64  54  69 E7        30.24F
6HR MIN TEMP:  54; 6HR MAX TEMP:  64;

GILLETTE       FAIR      68  53  58 NE6       30.21F
6HR MIN TEMP:  60; 6HR MAX TEMP:  69;

HULETT         CLOUDY    64  52  63 CALM      30.23F
NEWCASTLE      FAIR      66  52  59 MISG      30.21F

$$
WYZ014>020-022>026-101>103-070100-
CENTRAL WYOMING

CITY           SKY/WX    TMP DP  RH WIND       PRES   REMARKS
BIG PINEY      LGT RAIN  55  52  89 E9        30.29
6HR MIN TEMP:  53; 6HR MAX TEMP:  73; 6HR PCP:  0.90;

PINEDALE       LGT RAIN  54  54 100 E10       30.29F
DUBOIS         MOCLDY    59  50  72 SE10      30.29S
LANDER         LGT RAIN  61  56  83 NW5       30.22R
6HR MIN TEMP:  57; 6HR MAX TEMP:  67; 6HR PCP:  0.02;

RIVERTON       CLOUDY    69  50  50 NE3       30.22R
6HR MIN TEMP:  62; 6HR MAX TEMP:  71;

CASPER         FAIR      68  51  54 E10       30.22F HAZE
6HR MIN TEMP:  59; 6HR MAX TEMP:  70;

DOUGLAS        CLOUDY    64  54  69 SE12      30.25F
6HR MIN TEMP:  58; 6HR MAX TEMP:  64;


$$
WYZ021-027>030-104>119-070100-
SOUTHERN WYOMING

CITY           SKY/WX    TMP DP  RH WIND       PRES   REMARKS
EVANSTON       PTSUNNY   72  46  39 NW16G24   30.24R
6HR MIN TEMP:  67; 6HR MAX TEMP:  80;

KEMMERER       LGT RAIN  55  52  88 N12       30.28F
FORT BRIDGER   TSTM      63  55  77 N15G26    30.30R
ROCK SPRINGS   FAIR      74  50  42 SE14      30.17F
6HR MIN TEMP:  67; 6HR MAX TEMP:  75;

DIXON          FAIR      77  48  35 NE7       30.20F
RAWLINS        FAIR      68  50  52 NE9       30.24F
6HR MIN TEMP:  61; 6HR MAX TEMP:  70;

SARATOGA       FAIR      72  46  40 NW9       30.25F
LARAMIE        CLOUDY    60  51  72 SE18      30.30F
6HR MIN TEMP:  57; 6HR MAX TEMP:  62;

CHEYENNE       CLOUDY    57  52  83 E9        30.30F HAZE
6HR MIN TEMP:  54; 6HR MAX TEMP:  60; 6HR PCP: TRACE;

TORRINGTON     CLOUDY    65  52  62 CALM      30.22F HAZE
6HR MIN TEMP:  62; 6HR MAX TEMP:  67;

PINE BLUFFS    CLOUDY    61  52  72 NE6       30.28S HAZE

$$


USA.gov is the U.S. government's official web portal to all federal, state and local government web resources and services.